DW7229 Weather Reports


Display with metric or nautical units.
time (UTC)temp
F
wind
direction
speed
MPH
gust
MPH
rain 1hr
in
rain 24hr
in
rain mn
in
humidity
%
barometer
mb
20260505183515 85 228 7.0 15.0 0.00 0.00 0.00 29 1005.5
20260505182518 84 240 6.0 11.0 0.00 0.00 0.00 30 1005.7
20260505181521 85 207 7.0 15.0 0.00 0.00 0.00 30 1005.7
20260505180525 84 269 5.0 11.0 0.00 0.00 0.00 31 1005.7
20260505175528 85 189 2.0 9.0 0.00 0.00 0.00 31 1006.0
20260505174531 84 233 7.0 13.0 0.00 0.00 0.00 31 1006.1
20260505173517 84 211 5.0 17.0 0.00 0.00 0.00 32 1006.4
20260505172520 83 246 5.0 11.0 0.00 0.00 0.00 33 1006.4
20260505171523 84 196 2.0 11.0 0.00 0.00 0.00 34 1006.7
20260505170527 82 173 2.0 11.0 0.00 0.00 0.00 34 1006.9
20260505165530 82 204 3.0 8.0 0.00 0.00 0.00 35 1007.0
20260505164515 81 230 5.0 8.0 0.00 0.00 0.00 36 1007.2
20260505163518 80 197 3.0 7.0 0.00 0.00 0.00 36 1007.2
20260505162522 81 270 0.0 4.0 0.00 0.00 0.00 37 1007.8
20260505161525 80 135 0.0 2.0 0.00 0.00 0.00 38 1007.9
20260505160548 79 211 2.0 4.0 0.00 0.00 0.00 39 1008.1
20260505152523 76 215 2.0 6.0 0.00 0.00 0.00 41 1008.6
20260505151521 75 242 2.0 8.0 0.00 0.00 0.00 42 1008.6
20260505150518 73 231 2.0 5.0 0.00 0.00 0.00 44 1008.7
20260505140532 68 181 2.0 9.0 0.00 0.00 0.00 50 1008.7
20260505124602 60 191 1.0 3.0 0.00 0.00 0.00 58 1009.0
20260505123525 60 236 2.0 5.0 0.00 0.00 0.00 58 1009.0
20260505122529 60 225 1.0 5.0 0.00 0.00 0.00 59 1009.2
20260505121552 60 192 2.0 8.0 0.00 0.00 0.00 59 1009.0
20260505120517 60 257 2.0 4.0 0.00 0.00 0.00 59 1008.8
20260505115520 60 261 2.0 6.0 0.00 0.00 0.00 59 1008.8
20260505114524 58 232 2.0 5.0 0.00 0.00 0.00 61 1008.7
20260505113521 57 237 3.0 6.0 0.00 0.00 0.00 62 1008.8
20260505112518 57 248 2.0 5.0 0.00 0.00 0.00 62 1008.8
20260505111536 57 184 3.0 7.0 0.00 0.00 0.00 62 1008.8
20260505110518 56 245 2.0 6.0 0.00 0.00 0.00 63 1008.8
20260505101517 54 225 1.0 3.0 0.00 0.00 0.00 64 1008.8
20260505100540 54 207 1.0 5.0 0.00 0.00 0.00 64 1008.7
20260505095544 53 225 1.0 4.0 0.00 0.00 0.00 64 1008.7
20260505094527 53 178 1.0 5.0 0.00 0.00 0.00 64 1008.8
20260505093531 53 0.0 3.0 0.00 0.00 0.00 64 1008.8
20260505092516 52 195 0.0 2.0 0.00 0.00 0.00 65 1008.8
20260505091519 52 0.0 0.0 0.00 0.00 0.00 65 1008.8
20260505090522 52 0.0 0.0 0.00 0.00 0.00 65 1008.8
20260505085526 52 0.0 0.0 0.00 0.00 0.00 64 1008.9
20260505084529 53 0.0 0.0 0.00 0.00 0.00 63 1009.0
20260505083553 53 0.0 1.0 0.00 0.00 0.00 63 1009.0
20260505082518 53 270 0.0 1.0 0.00 0.00 0.00 62 1009.0
20260505081541 53 0.0 0.0 0.00 0.00 0.00 62 1009.1
20260505080524 53 0.0 0.0 0.00 0.00 0.00 62 1009.2
20260505075542 53 0.0 0.0 0.00 0.00 0.00 62 1009.3
20260505074519 53 0.0 0.0 0.00 0.00 0.00 61 1009.1
20260505073516 53 0.0 0.0 0.00 0.00 0.00 61 1009.2
20260505072519 53 0.0 0.0 0.00 0.00 0.00 61 1009.2
20260505071523 53 101 0.0 2.0 0.00 0.00 0.00 61 1009.2
20260505070526 53 158 0.0 2.0 0.00 0.00 0.00 61 1009.2
20260505065549 53 214 0.0 3.0 0.00 0.00 0.00 61 1009.3
20260505064515 53 0.0 0.0 0.00 0.00 0.00 60 1009.2
20260505063518 54 188 0.0 2.0 0.00 0.00 0.00 60 1009.3
20260505062541 54 0.0 0.0 0.00 0.00 0.00 60 1009.3
20260505061545 54 0.0 0.0 0.00 0.00 0.00 59 1009.4
20260505060528 54 165 0.0 3.0 0.00 0.00 0.00 59 1009.5
20260505055531 54 0.0 0.0 0.00 0.00 0.00 59 1009.4
20260505054516 54 0.0 0.0 0.00 0.00 0.00 58 1009.6
20260505053519 55 0.0 0.0 0.00 0.00 0.00 57 1009.6
20260505052543 55 0.0 0.0 0.00 0.00 0.00 57 1009.7
20260505051526 55 0.0 0.0 0.00 0.00 0.00 55 1009.7
20260505050530 55 0.0 0.0 0.00 0.00 0.00 55 1009.7
20260505041522 57 193 0.0 2.0 0.00 0.00 0.00 51 1009.5
20260505040519 57 158 1.0 3.0 0.00 0.00 0.00 51 1009.4
20260505035517 58 163 1.0 5.0 0.00 0.00 0.00 50 1009.2
20260505034540 58 226 1.0 5.0 0.00 0.00 0.00 49 1009.3
20260505033523 58 203 0.0 1.0 0.00 0.00 0.00 49 1009.3
20260505032526 59 0.0 1.0 0.00 0.00 0.00 48 1009.2
20260505031530 59 203 1.0 3.0 0.00 0.00 0.00 47 1009.2
20260505030535 59 191 2.0 5.0 0.00 0.00 0.00 47 1009.3
20260505025538 60 216 0.0 6.0 0.00 0.00 0.00 46 1009.2
20260505024522 60 159 1.0 3.0 0.00 0.00 0.00 46 1009.3
20260505023525 60 0.0 0.0 0.00 0.00 0.00 45 1009.2
20260505022528 61 168 0.0 3.0 0.00 0.00 0.00 45 1009.3
20260505021532 61 172 1.0 5.0 0.00 0.00 0.00 44 1009.2
20260505020517 62 191 1.0 6.0 0.00 0.00 0.00 44 1009.1
20260505015520 62 173 1.0 5.0 0.00 0.00 0.00 43 1009.2
20260505014523 62 189 1.0 5.0 0.00 0.00 0.00 42 1009.0
20260505013527 63 324 1.0 5.0 0.00 0.00 0.00 42 1008.6
20260505012551 63 225 1.0 4.0 0.00 0.00 0.00 41 1008.5
20260505011515 64 178 1.0 5.0 0.00 0.00 0.00 40 1008.3
20260505010518 64 253 3.0 10.0 0.00 0.00 0.00 40 1008.1
20260505005522 64 198 4.0 10.0 0.00 0.00 0.00 39 1007.9
20260505004525 65 207 4.0 9.0 0.00 0.00 0.00 38 1007.6
20260505003522 66 216 2.0 8.0 0.00 0.00 0.00 37 1007.2
20260505002520 66 213 3.0 7.0 0.00 0.00 0.00 36 1006.8
20260505001517 66 259 1.0 4.0 0.00 0.00 0.00 34 1006.7
20260505000520 67 225 1.0 5.0 0.00 0.00 0.00 33 1006.5
20260504235524 67 248 0.0 2.0 0.00 0.00 0.00 33 1006.4
20260504234527 68 270 0.0 2.0 0.00 0.00 0.00 31 1006.2
20260504233530 69 225 0.0 2.0 0.00 0.00 0.00 30 1006.2
20260504232515 69 248 0.0 3.0 0.00 0.00 0.00 30 1006.0
20260504231518 70 219 2.0 4.0 0.00 0.00 0.00 29 1005.9
20260504230522 71 227 1.0 4.0 0.00 0.00 0.00 28 1005.8
20260504225525 72 180 1.0 4.0 0.00 0.00 0.00 28 1005.7
20260504224528 73 225 0.0 3.0 0.00 0.00 0.00 27 1005.5
20260504223532 73 285 2.0 6.0 0.00 0.00 0.00 26 1005.6
20260504222517 74 212 1.0 6.0 0.00 0.00 0.00 26 1005.5
20260504221520 73 272 3.0 5.0 0.00 0.00 0.00 26 1005.6